Simultaneous Nadir Overpasses (SNOs) Predictions

Prediction of SNOs between METOP-A and TERRA Satellite Orbit:

Table of predicted SNOs for the next 14.0 days since TLE Epoch: 5/24/2014
Index Date (METOP-A) Time (METOP-A) Lat,Lon (METOP-A) SZA (METOP-A ) Date (TERRA) Time (TERRA) Lat,Lon (TERRA) SZA (TERRA ) Distance(km) Time Diff (sec)
1 05/24/2014 17:41:37 -81.28, 141.48 116.60 05/24/2014 17:42:42 -81.28, 141.30 116.58 2.98 65
2 05/24/2014 18:32:18 81.28, -51.08 63.42 05/24/2014 18:32:09 81.27, -51.25 63.39 3.03 9
3 05/27/2014 13:16:00 -81.27,-152.67 117.16 05/27/2014 13:16:58 -81.27,-152.51 117.11 2.84 58
4 05/27/2014 14:06:40 81.28, 15.14 62.90 05/27/2014 14:06:24 81.28, 15.28 62.91 2.31 16
5 05/30/2014 08:50:22 -81.27, -86.10 117.59 05/30/2014 08:51:14 -81.27, -86.06 117.56 0.67 52
6 05/30/2014 09:41:02 81.28, 81.70 62.47 05/30/2014 09:40:40 81.28, 81.69 62.45 0.48 22
7 06/02/2014 04:24:44 -81.27, -19.57 117.97 06/02/2014 04:25:30 -81.26, -19.75 117.98 3.17 46
8 06/02/2014 05:15:24 81.28, 148.21 62.08 06/02/2014 05:14:55 81.29, 148.35 62.09 2.48 29
9 06/04/2014 23:59:05 -81.28, 46.90 118.32 06/04/2014 23:59:44 -81.27, 46.82 118.31 1.42 39




NCC Satellite Simultaneous Nadir Overpasses (SNOs) Prediction Service
